Weather History for Waukegan, IL

Change the Weather History Date:

Thursday, December 20, 2012

  Actual Average Record
Temperature  
Mean Temperature 39 °F -  
Max Temperature 44 °F 33 °F 44 °F (2012)
Min Temperature 33 °F 19 °F 0 °F (2000)
Degree Days  
Heating Degree Days 26 39  
Month to date heating degree days 518 728  
Since 1 July heating degree days 1957 2113  
Cooling Degree Days 0 0  
Month to date cooling degree days 0 0  
Year to date cooling degree days 983 564  
Moisture  
Dew Point 37 °F    
Average Humidity 93    
Maximum Humidity 100    
Minimum Humidity 85    
Precipitation  
Precipitation 1.87 in 0.06 in 2.04 in (2012)
Month to date precipitation 3.21 1.46  
Year to date precipitation 26.62 35.05  
Sea Level Pressure  
Sea Level Pressure 29.33 in    
Wind  
Wind Speed 15 mph (NE)    
Max Wind Speed 26 mph    
Max Gust Speed 40 mph    
Visibility 2 miles    
Events Rain , Snow    
T = Trace of Precipitation, MM = Missing Value Source: NWS Daily Summary

Daily Weather History Graph

Daily Weather History Graph

Search for Another Location

Airport:

Trip Planner

Search our weather history database for the weather conditions in past years. The results will help you decide how hot, cold, wet, or windy it might be!

Date:

Astronomy

Dec. 20, 2012 Rise Set
Actual Time 7:17 AM CST 4:21 PM CST
Civil Twilight 6:45 AM CST 4:53 PM CST
Nautical Twilight 6:09 AM CST 5:29 PM CST
Astronomical Twilight 5:35 AM CST 6:03 PM CST
Moon 11:45 AM CST (12/20) No Moon Set
Length of Visible Light 10h 08m
Length of Day
9h 04m
First Quarter, 55% of the Moon is Illuminated
Dec 20
First Quarter
Dec 28
Full
Jan 4
Last Quarter
Jan 11
New
Jan 18
First Quarter

Hourly Weather History & Observations

Time (CST) Temp. Windchill Dew Point Humidity Pressure Visibility Wind Dir Wind Speed Gust Speed Precip Events Conditions
12:01 AM 39.2 °F 30.2 °F 37.4 °F 93% 29.85 in 5.0 mi East 17.3 mph 23.0 mph 0.01 in Rain Light Rain
12:40 AM 39.2 °F 30.5 °F 37.4 °F 93% 29.79 in 3.0 mi East 16.1 mph 24.2 mph 0.05 in Rain Light Rain
12:44 AM 39.2 °F 31.6 °F 37.4 °F 93% 29.79 in 4.0 mi East 12.7 mph 24.2 mph 0.05 in Rain Light Rain
12:52 AM 39.9 °F 32.9 °F 37.0 °F 89% 29.83 in 5.0 mi East 11.5 mph 21.9 mph 0.05 in Rain Light Rain
1:48 AM 39.2 °F 30.5 °F 37.4 °F 93% 29.73 in 3.0 mi East 16.1 mph 26.5 mph 0.06 in Rain Light Rain
1:52 AM 39.9 °F 31.1 °F 37.9 °F 93% 29.75 in 3.0 mi East 17.3 mph 29.9 mph 0.08 in Rain Rain
2:02 AM 39.2 °F 30.8 °F 37.4 °F 93% 29.71 in 2.5 mi East 15.0 mph 33.4 mph 0.05 in Rain Rain
2:10 AM 39.2 °F 30.2 °F 37.4 °F 93% 29.70 in 4.0 mi East 17.3 mph 28.8 mph 0.06 in Rain Light Rain
2:52 AM 39.9 °F 30.8 °F 37.9 °F 93% 29.69 in 3.0 mi East 18.4 mph 26.5 mph 0.13 in Rain Rain
3:05 AM 39.2 °F 29.6 °F 37.4 °F 93% 29.64 in 2.5 mi East 19.6 mph 26.5 mph 0.03 in Rain Rain
3:16 AM 39.2 °F 30.2 °F 37.4 °F 93% 29.63 in 3.0 mi East 17.3 mph 29.9 mph 0.05 in Rain Rain
3:40 AM 39.2 °F 30.8 °F 39.2 °F 100% 29.63 in 2.0 mi East 15.0 mph 25.3 mph 0.11 in Rain Heavy Rain
3:52 AM 39.9 °F 31.1 °F 39.0 °F 97% 29.63 in 2.0 mi East 17.3 mph 26.5 mph 0.17 in Rain Heavy Rain
4:52 AM 41.0 °F 33.1 °F 39.0 °F 93% 29.55 in 2.5 mi East 15.0 mph 25.3 mph 0.13 in Rain Light Rain
5:24 AM 41.0 °F 32.5 °F 39.2 °F 93% 29.48 in 3.0 mi East 17.3 mph 27.6 mph 0.08 in Rain Light Rain
5:35 AM 41.0 °F 33.1 °F 39.2 °F 93% 29.48 in 2.5 mi East 15.0 mph 25.3 mph 0.12 in Rain Rain
5:52 AM 41.0 °F 32.5 °F 39.9 °F 96% 29.48 in 2.5 mi East 17.3 mph 24.2 mph 0.17 in Rain Rain
6:18 AM 42.8 °F 34.8 °F 41.0 °F 93% 29.42 in 2.0 mi East 17.3 mph 26.5 mph 0.09 in Rain Rain
6:52 AM 42.1 °F 33.6 °F 41.0 °F 96% 29.43 in 2.5 mi East 18.4 mph 25.3 mph 0.23 in Rain Rain
7:52 AM 43.0 °F 34.2 °F 41.0 °F 93% 29.32 in 2.5 mi ESE 20.7 mph 28.8 mph 0.10 in   Overcast
7:59 AM 42.8 °F 35.1 °F 42.8 °F 100% 29.33 in 5.0 mi ESE 16.1 mph 26.5 mph N/A   Overcast
8:52 AM 44.1 °F 36.5 °F 42.1 °F 93% 29.33 in 5.0 mi ESE 17.3 mph 23.0 mph N/A   Overcast
9:13 AM 44.6 °F 37.8 °F 42.8 °F 93% 29.29 in 5.0 mi ESE 15.0 mph 23.0 mph N/A   Overcast
9:52 AM 44.1 °F 37.4 °F 42.1 °F 93% 29.27 in 4.0 mi East 13.8 mph 23.0 mph N/A   Overcast
10:40 AM 44.6 °F 37.8 °F 42.8 °F 93% 29.19 in 2.5 mi East 15.0 mph - 0.01 in Rain Light Rain
11:12 AM 44.6 °F 38.4 °F 42.8 °F 93% 29.16 in 2.0 mi East 12.7 mph 20.7 mph 0.04 in Rain Light Rain
11:24 AM 44.6 °F 38.1 °F 42.8 °F 93% 29.14 in 2.5 mi East 13.8 mph 21.9 mph 0.04 in Rain Light Rain
11:34 AM 44.6 °F 38.4 °F 42.8 °F 93% 29.13 in 3.0 mi East 12.7 mph 21.9 mph 0.04 in Rain Light Rain
11:52 AM 44.1 °F 38.1 °F 43.0 °F 96% 29.13 in 2.0 mi East 11.5 mph - 0.05 in Rain Light Rain
12:01 PM 44.6 °F 37.8 °F 42.8 °F 93% 29.10 in 1.0 mi East 15.0 mph 19.6 mph 0.01 in Rain Light Rain
12:24 PM 44.6 °F 39.2 °F 42.8 °F 93% 29.08 in 1.2 mi East 10.4 mph 18.4 mph 0.02 in Rain Light Rain
12:40 PM 44.6 °F 38.8 °F 42.8 °F 93% 29.06 in 0.8 mi East 11.5 mph - 0.03 in Rain Light Rain
12:52 PM 44.1 °F 38.1 °F 44.1 °F 100% 29.07 in 0.8 mi East 11.5 mph - 0.04 in Rain Light Rain
1:17 PM 44.6 °F 39.2 °F 44.6 °F 100% 29.03 in 1.0 mi East 10.4 mph 17.3 mph 0.09 in Rain Rain
1:29 PM 44.6 °F 40.7 °F 44.6 °F 100% 29.03 in 0.8 mi ENE 6.9 mph - 0.19 in Rain Heavy Rain
1:52 PM 44.1 °F 39.0 °F 44.1 °F 100% 29.04 in 1.0 mi NNW 9.2 mph - 0.23 in Rain Light Rain
2:52 PM 42.1 °F 35.2 °F 41.0 °F 96% 29.04 in 1.8 mi North 12.7 mph 26.5 mph 0.22 in Rain Rain
3:02 PM 42.8 °F 38.6 °F 41.0 °F 93% 29.04 in 3.0 mi Variable 6.9 mph 19.6 mph 0.02 in Rain Light Rain
3:52 PM 39.9 °F 32.5 °F 37.9 °F 93% 29.09 in 4.0 mi NNW 12.7 mph 20.7 mph 0.11 in Rain Light Rain
4:48 PM 33.8 °F 25.8 °F 32.0 °F 93% 29.13 in 2.0 mi NW 10.4 mph 19.6 mph 0.06 in Snow Light Snow
4:52 PM 33.1 °F 24.9 °F 32.0 °F 96% 29.15 in 1.5 mi NW 10.4 mph 18.4 mph 0.06 in Snow Light Snow
5:17 PM 33.8 °F 24.3 °F 32.0 °F 93% 29.13 in 0.8 mi NW 13.8 mph 28.8 mph 0.00 in Snow Light Snow
5:44 PM 33.8 °F 24.3 °F 32.0 °F 93% 29.15 in 1.0 mi NW 13.8 mph 20.7 mph 0.00 in Snow Light Snow
5:52 PM 33.1 °F 24.4 °F 32.0 °F 96% 29.18 in 1.0 mi NW 11.5 mph 23.0 mph 0.00 in Snow Light Snow
6:18 PM 33.8 °F 24.3 °F 32.0 °F 93% 29.17 in 2.0 mi WNW 13.8 mph 24.2 mph 0.01 in Snow Light Snow
6:28 PM 33.8 °F 24.3 °F 32.0 °F 93% 29.18 in 1.8 mi WNW 13.8 mph 24.2 mph 0.01 in Snow Light Snow
6:49 PM 33.8 °F 24.3 °F 32.0 °F 93% 29.19 in 2.5 mi NW 13.8 mph 28.8 mph 0.02 in Snow Light Snow
6:52 PM 33.1 °F 22.6 °F 32.0 °F 96% 29.22 in 2.5 mi NW 16.1 mph 28.8 mph 0.02 in Snow Light Snow
7:08 PM 33.8 °F 22.8 °F 32.0 °F 93% 29.21 in 2.5 mi NW 18.4 mph 31.1 mph 0.01 in Snow Light Snow
7:26 PM 33.8 °F 23.5 °F 30.2 °F 87% 29.22 in 4.0 mi NW 16.1 mph 33.4 mph 0.02 in Rain Light Freezing Rain
7:34 PM 33.8 °F 22.8 °F 30.2 °F 87% 29.22 in 3.0 mi WNW 18.4 mph 28.8 mph 0.02 in Snow Light Snow
7:45 PM 33.8 °F 22.5 °F 30.2 °F 87% 29.22 in 2.5 mi NW 19.6 mph 36.8 mph 0.02 in Snow Light Snow
7:52 PM 33.1 °F 21.9 °F 30.9 °F 92% 29.25 in 2.5 mi WNW 18.4 mph 31.1 mph 0.03 in Snow Light Snow
8:07 PM 33.8 °F 22.2 °F 30.2 °F 87% 29.23 in 1.8 mi NW 20.7 mph 38.0 mph 0.00 in Snow Light Snow
8:14 PM 33.8 °F 22.2 °F 30.2 °F 87% 29.24 in 1.2 mi NW 20.7 mph 40.3 mph 0.00 in Snow Light Snow
8:21 PM 33.8 °F 22.8 °F 30.2 °F 87% 29.24 in 1.0 mi NW 18.4 mph 39.1 mph 0.00 in Snow Light Snow
8:41 PM 33.8 °F 22.2 °F 30.2 °F 87% 29.25 in 2.0 mi NW 20.7 mph 36.8 mph 0.01 in Snow Light Snow
8:48 PM 33.8 °F 22.8 °F 30.2 °F 87% 29.25 in 2.0 mi NW 18.4 mph 36.8 mph 0.01 in Snow Light Snow
8:52 PM 33.1 °F 21.9 °F 30.9 °F 92% 29.28 in 2.0 mi NW 18.4 mph 32.2 mph 0.01 in Snow Light Snow
9:52 PM 33.1 °F 21.9 °F 30.9 °F 92% 29.32 in 1.8 mi NW 18.4 mph 35.7 mph 0.02 in Snow Light Snow
10:52 PM 33.1 °F 22.2 °F 30.9 °F 92% 29.38 in 1.5 mi NW 17.3 mph 31.1 mph 0.01 in Snow Light Snow
11:52 PM 33.1 °F 21.9 °F 30.9 °F 92% 29.42 in 1.2 mi NW 18.4 mph 29.9 mph 0.01 in Snow Light Snow